GW4460 Weather Reports


Display with metric or nautical units.
time (UTC)temp
F
wind
direction
speed
MPH
gust
MPH
rain 1hr
in
rain 24hr
in
rain mn
in
humidity
%
barometer
mb
20260505230012 56 93 5.0 6.0 0.00 0.00 0.00 71 1009.3
20260505225509 56 73 5.0 11.0 0.00 0.00 0.00 71 1009.4
20260505225005 56 73 5.0 8.0 0.00 0.00 0.00 71 1009.5
20260505224502 57 273 2.0 9.0 0.00 0.00 0.00 71 1009.5
20260505223959 57 205 1.0 7.0 0.00 0.00 0.00 71 1009.8
20260505223456 57 64 8.0 10.0 0.00 0.00 0.00 70 1009.7
20260505222952 57 107 2.0 9.0 0.00 0.00 0.00 71 1009.5
20260505222448 57 66 6.0 8.0 0.00 0.00 0.00 70 1009.4
20260505221944 57 84 5.0 9.0 0.00 0.00 0.00 71 1009.5
20260505221442 57 109 3.0 9.0 0.00 0.00 0.00 72 1009.4
20260505220939 57 92 6.0 10.0 0.00 0.00 0.00 71 1009.4
20260505220436 58 113 5.0 6.0 0.00 0.00 0.00 71 1009.7
20260505215933 58 114 4.0 8.0 0.00 0.00 0.00 70 1009.6
20260505215431 58 83 3.0 7.0 0.00 0.00 0.00 71 1009.4
20260505214929 58 35 2.0 7.0 0.00 0.00 0.00 70 1009.2
20260505214426 59 108 5.0 7.0 0.00 0.00 0.00 70 1009.2
20260505213923 59 92 4.0 4.0 0.00 0.00 0.00 70 1009.2
20260505213421 59 77 2.0 10.0 0.00 0.00 0.00 70 1009.2
20260505212917 60 122 2.0 5.0 0.00 0.00 0.00 68 1009.3
20260505212414 60 99 4.0 8.0 0.00 0.00 0.00 68 1009.0
20260505211910 60 262 1.0 4.0 0.00 0.00 0.00 68 1009.2
20260505211408 60 231 2.0 6.0 0.00 0.00 0.00 67 1008.7
20260505210904 61 100 2.0 6.0 0.00 0.00 0.00 67 1008.5
20260505210402 61 99 2.0 8.0 0.00 0.00 0.00 67 1008.7
20260505205858 60 92 2.0 6.0 0.00 0.00 0.00 68 1008.6
20260505205357 61 111 7.0 10.0 0.00 0.00 0.00 67 1008.6
20260505204853 60 77 4.0 12.0 0.00 0.00 0.00 69 1008.6
20260505204351 60 68 3.0 12.0 0.00 0.00 0.00 68 1008.5
20260505203848 62 30 5.0 11.0 0.00 0.00 0.00 65 1008.4
20260505203344 62 92 5.0 6.0 0.00 0.00 0.00 66 1008.5
20260505202841 62 101 5.0 6.0 0.00 0.00 0.00 66 1008.2
20260505202337 63 53 2.0 6.0 0.00 0.00 0.00 65 1008.4
20260505201834 63 79 4.0 8.0 0.00 0.00 0.00 65 1008.7
20260505201331 64 261 2.0 10.0 0.00 0.00 0.00 64 1008.7
20260505200830 64 79 6.0 11.0 0.00 0.00 0.00 64 1008.5
20260505200326 62 94 3.0 11.0 0.00 0.00 0.00 68 1008.5
20260505195821 63 78 6.0 13.0 0.00 0.00 0.00 65 1008.2
20260505195319 63 81 7.0 9.0 0.00 0.00 0.00 66 1008.2
20260505194816 63 27 2.0 9.0 0.00 0.00 0.00 65 1008.0
20260505194313 65 64 7.0 11.0 0.00 0.00 0.00 63 1007.8
20260505193808 64 99 2.0 4.0 0.00 0.00 0.00 65 1007.8
20260505193307 65 117 3.0 4.0 0.00 0.00 0.00 62 1007.8
20260505192804 66 274 2.0 8.0 0.00 0.00 0.00 61 1007.8
20260505192305 65 221 1.0 5.0 0.00 0.00 0.00 61 1007.6
20260505191800 66 286 2.0 7.0 0.00 0.00 0.00 63 1007.8
20260505191258 67 57 4.0 5.0 0.00 0.00 0.00 60 1007.5
20260505190754 66 213 4.0 5.0 0.00 0.00 0.00 61 1007.6
20260505190249 66 172 2.0 4.0 0.00 0.00 0.00 63 1007.7
20260505185746 65 188 0.0 5.0 0.00 0.00 0.00 64 1007.9
20260505185242 64 62 4.0 6.0 0.00 0.00 0.00 65 1008.1
20260505184738 64 140 2.0 5.0 0.00 0.00 0.00 66 1008.1
20260505184236 64 74 1.0 5.0 0.00 0.00 0.00 65 1008.1
20260505183732 65 91 4.0 11.0 0.00 0.00 0.00 65 1008.0
20260505183230 65 86 4.0 5.0 0.00 0.00 0.00 64 1008.1
20260505182726 65 63 3.0 5.0 0.00 0.00 0.00 64 1008.1
20260505182223 65 107 4.0 8.0 0.00 0.00 0.00 65 1007.9
20260505181719 65 102 2.0 8.0 0.00 0.00 0.00 65 1007.3
20260505181217 65 72 6.0 9.0 0.00 0.00 0.00 65 1006.9
20260505180714 65 287 2.0 4.0 0.00 0.00 0.00 65 1007.2
20260505180210 66 91 3.0 6.0 0.00 0.00 0.00 65 1007.3
20260505175706 66 294 2.0 4.0 0.00 0.00 0.00 66 1007.3
20260505175203 66 302 2.0 4.0 0.00 0.00 0.00 65 1007.5
20260505174659 66 12 0.0 5.0 0.00 0.00 0.00 66 1007.7
20260505174155 66 117 2.0 10.0 0.00 0.00 0.00 65 1007.2
20260505173652 66 318 2.0 8.0 0.00 0.00 0.00 66 1006.9
20260505173149 66 85 1.0 9.0 0.00 0.00 0.00 66 1006.6
20260505172647 66 203 3.0 12.0 0.00 0.00 0.00 66 1006.4
20260505172143 66 207 2.0 9.0 0.00 0.00 0.00 67 1006.2
20260505171643 66 294 3.0 10.0 0.00 0.00 0.00 67 1006.0
20260505171141 66 267 5.0 5.0 0.00 0.00 0.00 67 1006.0
20260505170638 66 185 3.0 8.0 0.00 0.00 0.00 68 1005.6
20260505170134 66 50 5.0 16.0 0.00 0.00 0.00 67 1005.4
20260505165634 67 229 3.0 10.0 0.00 0.00 0.00 66 1006.0
20260505165131 66 118 2.0 6.0 0.00 0.00 0.00 67 1005.7
20260505164626 67 95 2.0 10.0 0.00 0.00 0.00 66 1005.5
20260505164124 68 122 5.0 11.0 0.00 0.00 0.00 66 1005.5
20260505163622 68 141 3.0 6.0 0.00 0.00 0.00 64 1004.9
20260505163120 69 98 5.0 8.0 0.00 0.00 0.00 62 1005.2
20260505162617 69 134 3.0 4.0 0.00 0.00 0.00 64 1005.0
20260505162115 69 88 2.0 8.0 0.00 0.00 0.00 65 1004.9
20260505161612 69 259 2.0 7.0 0.00 0.00 0.00 64 1004.9
20260505161109 68 306 1.0 7.0 0.00 0.00 0.00 65 1004.8
20260505160606 68 337 2.0 6.0 0.00 0.00 0.00 66 1004.6
20260505160104 69 268 2.0 7.0 0.00 0.00 0.00 67 1004.5
20260505153043 74 248 3.0 5.0 0.00 0.00 0.00 65 1003.9
20260505152540 75 325 2.0 5.0 0.00 0.00 0.00 64 1004.0
20260505152036 74 85 2.0 4.0 0.00 0.00 0.00 67 1004.2
20260505151531 74 298 2.0 4.0 0.00 0.00 0.00 63 1003.7
20260505151028 74 321 3.0 3.0 0.00 0.00 0.00 59 1003.5
20260505150525 75 290 1.0 4.0 0.00 0.00 0.00 53 1003.3
20260505140450 71 221 2.0 2.0 0.00 0.00 0.00 73 1002.2
20260505124903 67 142 0.0 2.0 0.00 0.00 0.00 79 1001.7
20260505124400 67 215 0.0 1.0 0.00 0.00 0.00 79 1001.7
20260505123856 67 220 0.0 2.0 0.00 0.00 0.00 79 1001.4
20260505123353 67 186 0.0 1.0 0.00 0.00 0.00 80 1001.6
20260505122849 67 148 0.0 1.0 0.00 0.00 0.00 80 1001.6
20260505122346 66 230 0.0 0.0 0.00 0.00 0.00 79 1001.5
20260505121843 66 135 0.0 0.0 0.00 0.00 0.00 79 1001.4
20260505121340 66 142 0.0 1.0 0.00 0.00 0.00 79 1001.4
20260505120836 67 140 0.0 1.0 0.00 0.00 0.00 78 1001.3
20260505120332 67 129 0.0 0.0 0.00 0.00 0.00 77 1001.5
20260505115831 68 217 0.0 1.0 0.00 0.00 0.00 77 1001.2
20260505115328 68 228 1.0 2.0 0.00 0.00 0.00 76 1001.1
20260505114826 68 212 1.0 3.0 0.00 0.00 0.00 76 1001.2
20260505114322 68 240 2.0 2.0 0.00 0.00 0.00 76 1001.2
20260505113819 68 218 0.0 2.0 0.00 0.00 0.00 76 1000.9
20260505113315 68 208 0.0 2.0 0.00 0.00 0.00 77 1001.3
20260505112811 68 199 0.0 2.0 0.00 0.00 0.00 77 1001.0
20260505112309 68 196 1.0 2.0 0.00 0.00 0.00 77 1000.9
20260505111804 68 202 0.0 1.0 0.00 0.00 0.00 77 1000.7
20260505111300 68 209 0.0 1.0 0.00 0.00 0.00 77 1000.8
20260505110756 68 209 0.0 2.0 0.00 0.00 0.00 77 1000.6
20260505110254 68 198 1.0 2.0 0.00 0.00 0.00 77 1000.7
20260505101728 68 189 0.0 1.0 0.00 0.00 0.00 78 1000.6
20260505101223 68 160 0.0 2.0 0.00 0.00 0.00 79 1000.4
20260505100720 68 190 1.0 2.0 0.00 0.00 0.00 79 1000.5
20260505100217 68 174 0.0 1.0 0.00 0.00 0.00 79 1000.7
20260505095712 68 182 0.0 1.0 0.00 0.00 0.00 79 1000.8
20260505095211 68 157 0.0 0.0 0.00 0.00 0.00 79 1000.6
20260505094706 68 196 0.0 1.0 0.00 0.00 0.00 79 1000.4
20260505094202 68 173 0.0 1.0 0.00 0.00 0.00 78 1000.6
20260505093659 68 181 0.0 1.0 0.00 0.00 0.00 78 1000.5
20260505093157 68 149 2.0 2.0 0.00 0.00 0.00 78 1000.6
20260505092653 69 178 1.0 1.0 0.00 0.00 0.00 78 1000.7
20260505092152 69 216 1.0 1.0 0.00 0.00 0.00 78 1000.7
20260505091649 69 174 0.0 2.0 0.00 0.00 0.00 78 1000.7
20260505091147 69 154 0.0 2.0 0.00 0.00 0.00 78 1000.6
20260505090644 69 180 0.0 2.0 0.00 0.00 0.00 78 1000.6
20260505090142 69 209 1.0 1.0 0.00 0.00 0.00 78 1000.9
20260505085639 69 209 0.0 2.0 0.00 0.00 0.00 77 1000.7
20260505085137 69 214 1.0 1.0 0.00 0.00 0.00 77 1001.0
20260505084635 69 156 0.0 1.0 0.00 0.00 0.00 77 1000.8
20260505084133 69 217 0.0 1.0 0.00 0.00 0.00 77 1000.7
20260505083630 70 178 0.0 2.0 0.00 0.00 0.00 77 1001.0
20260505083126 70 216 0.0 2.0 0.00 0.00 0.00 77 1000.8
20260505082622 70 228 1.0 2.0 0.00 0.00 0.00 77 1000.8
20260505082120 70 224 0.0 2.0 0.00 0.00 0.00 77 1000.8
20260505081615 70 188 0.0 2.0 0.00 0.00 0.00 77 1000.9
20260505081114 70 184 1.0 2.0 0.00 0.00 0.00 77 1000.8
20260505080609 70 216 1.0 2.0 0.00 0.00 0.00 77 1000.8
20260505080106 70 218 0.0 1.0 0.00 0.00 0.00 77 1000.6
20260505075602 70 170 0.0 2.0 0.00 0.00 0.00 77 1000.9
20260505075059 70 229 0.0 2.0 0.00 0.00 0.00 77 1001.0
20260505074556 70 205 1.0 2.0 0.00 0.00 0.00 77 1000.9
20260505074053 71 211 2.0 2.0 0.00 0.00 0.00 77 1001.1
20260505073550 71 220 0.0 5.0 0.00 0.00 0.00 77 1001.4
20260505073049 71 157 0.0 4.0 0.00 0.00 0.00 77 1001.2
20260505072549 71 167 0.0 3.0 0.00 0.00 0.00 77 1001.3
20260505072046 71 87 2.0 2.0 0.00 0.00 0.00 76 1001.5
20260505071541 71 124 0.0 3.0 0.00 0.00 0.00 76 1001.5
20260505071040 71 216 1.0 2.0 0.00 0.00 0.00 76 1001.6
20260505070537 71 200 1.0 4.0 0.00 0.00 0.00 76 1001.4
20260505070033 71 212 0.0 2.0 0.00 0.00 0.00 75 1001.6
20260505065529 71 13 0.0 3.0 0.00 0.00 0.00 75 1001.4
20260505065026 71 155 3.0 4.0 0.00 0.00 0.00 75 1001.9
20260505064522 71 187 0.0 2.0 0.00 0.00 0.00 75 1002.0
20260505064021 72 147 0.0 3.0 0.00 0.00 0.00 75 1002.0
20260505063518 72 175 0.0 3.0 0.00 0.00 0.00 74 1002.1
20260505063013 72 114 1.0 2.0 0.00 0.00 0.00 74 1002.0
20260505062511 72 141 3.0 3.0 0.00 0.00 0.00 74 1001.9
20260505062008 72 61 0.0 2.0 0.00 0.00 0.00 74 1002.1
20260505061506 72 170 0.0 3.0 0.00 0.00 0.00 74 1001.9
20260505061003 72 123 2.0 5.0 0.00 0.00 0.00 74 1001.8
20260505060500 72 194 1.0 3.0 0.00 0.00 0.00 74 1002.0
20260505055956 72 108 1.0 3.0 0.00 0.00 0.00 73 1002.2
20260505055452 72 147 4.0 5.0 0.00 0.00 0.00 73 1002.0
20260505054949 73 95 0.0 4.0 0.00 0.00 0.00 73 1002.2
20260505054447 73 57 1.0 3.0 0.00 0.00 0.00 73 1002.1
20260505053944 73 38 0.0 2.0 0.00 0.00 0.00 73 1002.0
20260505053441 73 34 2.0 2.0 0.00 0.00 0.00 72 1001.9
20260505052938 73 196 1.0 6.0 0.00 0.00 0.00 72 1001.9
20260505052435 73 182 2.0 4.0 0.00 0.00 0.00 72 1002.0
20260505051932 73 230 1.0 7.0 0.00 0.00 0.00 72 1002.0
20260505051429 73 108 2.0 4.0 0.00 0.00 0.00 71 1002.0
20260505050927 74 159 4.0 8.0 0.00 0.00 0.00 71 1002.2
20260505050425 74 151 2.0 6.0 0.00 0.00 0.00 71 1002.0
20260505041353 75 153 2.0 4.0 0.00 0.00 0.00 68 1002.5
20260505040850 75 202 1.0 4.0 0.00 0.00 0.00 68 1002.5
20260505040347 75 123 1.0 5.0 0.00 0.00 0.00 68 1002.4
20260505035844 75 166 3.0 3.0 0.00 0.00 0.00 68 1002.4
20260505035340 75 186 2.0 3.0 0.00 0.00 0.00 67 1002.3
20260505034837 75 184 3.0 5.0 0.00 0.00 0.00 67 1002.5
20260505034334 75 242 0.0 5.0 0.00 0.00 0.00 67 1002.5
20260505033831 76 192 3.0 4.0 0.00 0.00 0.00 67 1002.4
20260505033328 76 209 2.0 3.0 0.00 0.00 0.00 67 1002.5
20260505032826 76 197 2.0 3.0 0.00 0.00 0.00 66 1002.4
20260505032322 76 164 4.0 4.0 0.00 0.00 0.00 66 1002.6
20260505031819 76 193 0.0 3.0 0.00 0.00 0.00 66 1002.5
20260505031316 76 165 2.0 4.0 0.00 0.00 0.00 66 1002.4
20260505030813 76 178 2.0 5.0 0.00 0.00 0.00 66 1002.3
20260505030310 76 206 4.0 4.0 0.00 0.00 0.00 65 1002.3
20260505025804 77 182 1.0 3.0 0.00 0.00 0.00 64 1002.3
20260505025304 77 172 2.0 3.0 0.00 0.00 0.00 64 1002.2
20260505024801 77 186 2.0 6.0 0.00 0.00 0.00 64 1002.1
20260505024258 77 175 2.0 5.0 0.00 0.00 0.00 63 1001.9
20260505023755 77 169 3.0 4.0 0.00 0.00 0.00 63 1001.9
20260505023252 77 224 3.0 6.0 0.00 0.00 0.00 62 1001.7
20260505022749 78 222 2.0 8.0 0.00 0.00 0.00 62 1001.7
20260505022246 78 85 1.0 7.0 0.00 0.00 0.00 62 1001.7
20260505021743 78 248 3.0 4.0 0.00 0.00 0.00 61 1001.7
20260505021240 78 217 0.0 7.0 0.00 0.00 0.00 61 1001.6
20260505020735 78 152 7.0 8.0 0.00 0.00 0.00 61 1001.7
20260505020231 78 213 2.0 7.0 0.00 0.00 0.00 60 1001.4
20260505015728 78 192 4.0 6.0 0.00 0.00 0.00 60 1001.3
20260505015225 79 231 3.0 5.0 0.00 0.00 0.00 60 1001.6
20260505014722 79 158 4.0 10.0 0.00 0.00 0.00 59 1001.4
20260505014220 79 179 2.0 7.0 0.00 0.00 0.00 59 1001.5
20260505013716 79 229 4.0 4.0 0.00 0.00 0.00 59 1001.6
20260505013213 79 87 2.0 6.0 0.00 0.00 0.00 58 1001.5
20260505012712 80 76 2.0 6.0 0.00 0.00 0.00 58 1001.4
20260505012209 80 30 3.0 9.0 0.00 0.00 0.00 57 1001.4
20260505011704 80 165 3.0 8.0 0.00 0.00 0.00 57 1001.3
20260505011202 80 201 1.0 3.0 0.00 0.00 0.00 57 1001.5
20260505010657 80 174 4.0 7.0 0.00 0.00 0.00 56 1001.4
20260505010154 81 152 2.0 4.0 0.00 0.00 0.00 55 1001.4
20260505005650 81 185 2.0 10.0 0.00 0.00 0.00 55 1001.7
20260505005147 81 149 3.0 6.0 0.00 0.00 0.00 54 1001.5
20260505004644 81 145 4.0 6.0 0.00 0.00 0.00 54 1001.5
20260505004140 82 95 3.0 6.0 0.00 0.00 0.00 53 1001.7
20260505003638 82 150 2.0 8.0 0.00 0.00 0.00 53 1001.5
20260505003135 82 217 3.0 9.0 0.00 0.00 0.00 52 1001.7
20260505002631 82 227 2.0 6.0 0.00 0.00 0.00 52 1001.8
20260505002130 82 157 5.0 9.0 0.00 0.00 0.00 52 1002.0
20260505001626 82 269 5.0 5.0 0.00 0.00 0.00 54 1001.9
20260505001124 83 53 2.0 6.0 0.00 0.00 0.00 54 1001.9
20260505000621 83 126 2.0 6.0 0.00 0.00 0.00 53 1002.0
20260505000119 83 229 2.0 6.0 0.00 0.00 0.00 53 1002.3
20260504235615 84 259 1.0 6.0 0.00 0.00 0.00 48 1002.2
20260504235112 84 214 4.0 6.0 0.00 0.00 0.00 49 1002.1
20260504234609 84 124 3.0 10.0 0.00 0.00 0.00 49 1002.0
20260504234106 84 158 5.0 10.0 0.00 0.00 0.00 48 1001.9
20260504233601 85 149 8.0 11.0 0.00 0.00 0.00 47 1002.1
20260504233058 85 178 3.0 7.0 0.00 0.00 0.00 47 1002.1
20260504232555 85 144 3.0 11.0 0.00 0.00 0.00 47 1002.2
20260504232053 85 152 3.0 12.0 0.00 0.00 0.00 47 1002.1
20260504231549 86 66 4.0 15.0 0.00 0.00 0.00 46 1002.2
20260504231045 86 195 4.0 13.0 0.00 0.00 0.00 46 1002.2
20260504230541 86 53 5.0 12.0 0.00 0.00 0.00 46 1002.1
20260504230041 87 188 3.0 7.0 0.00 0.00 0.00 45 1002.2